When you browse on this site, cookies collect data to enhance your experience and personalize the content and advertising you see.
Visit our Privacy Policy to learn more. By continuing to use the site, you agree to this use of cookies and data.
  • En España
  • Lista de países
  • Para 7 días
  • Temperatura del agua
  • Mapa Satelital
  • El tiempo en el mapa
  • Informadores
  • user-avatar
    Iniciar sesión

    Tiempo cada hora Atlanta

    Hoy, 18 Junio, Martes

    Tiempo Temperatura Precipitaciones Viento Presión Humedad
    00:00 +27°C° 0.3 mm 2 mps 735 mmHg 73%
    01:00 +26°C° 0.2 mm 2 mps 735 mmHg 75%
    02:00 +26°C° 0.2 mm 2 mps 734 mmHg 77%
    03:00 +25°C° 0.2 mm 2 mps 734 mmHg 80%
    04:00 +26°C° 0 mm 2 mps 734 mmHg 80%
    05:00 +26°C° 0 mm 2 mps 734 mmHg 80%
    06:00 +26°C° 0 mm 2 mps 735 mmHg 80%
    07:00 +27°C° 0.4 mm 2 mps 735 mmHg 74%
    08:00 +28°C° 0.4 mm 3 mps 735 mmHg 69%
    09:00 +29°C° 0.4 mm 3 mps 735 mmHg 64%
    10:00 +30°C° 1.1 mm 3 mps 735 mmHg 62%
    11:00 +30°C° 1.1 mm 3 mps 735 mmHg 60%
    12:00 +31°C° 1.1 mm 3 mps 734 mmHg 58%
    13:00 +31°C° 0.2 mm 2 mps 734 mmHg 55%
    14:00 +32°C° 0.2 mm 2 mps 734 mmHg 53%
    15:00 +32°C° 0.2 mm 2 mps 733 mmHg 50%
    16:00 +31°C° 0.4 mm 2 mps 733 mmHg 56%
    17:00 +29°C° 0.4 mm 2 mps 733 mmHg 63%
    18:00 +28°C° 0.4 mm 2 mps 733 mmHg 69%
    19:00 +28°C° 0.2 mm 2 mps 733 mmHg 69%
    20:00 +27°C° 0.2 mm 2 mps 733 mmHg 70%
    21:00 +27°C° 0.2 mm 2 mps 733 mmHg 70%
    22:00 +26°C° 0 mm 3 mps 733 mmHg 73%
    23:00 +26°C° 0 mm 3 mps 732 mmHg 76%

    Mañana, 19 Junio, Miércoles

    Tiempo Temperatura Precipitaciones Viento Presión Humedad
    00:00 +26°C° 0 mm 3 mps 732 mmHg 79%
    01:00 +25°C° 0.5 mm 3 mps 732 mmHg 80%
    02:00 +25°C° 0.5 mm 3 mps 732 mmHg 81%
    03:00 +25°C° 0.5 mm 2 mps 732 mmHg 82%
    04:00 +25°C° 0.7 mm 2 mps 732 mmHg 83%
    05:00 +25°C° 0.7 mm 2 mps 732 mmHg 83%
    06:00 +25°C° 0.7 mm 2 mps 732 mmHg 84%
    07:00 +26°C° 0 mm 2 mps 732 mmHg 76%
    08:00 +28°C° 0 mm 2 mps 732 mmHg 68%
    09:00 +30°C° 0 mm 2 mps 732 mmHg 61%
    10:00 +31°C° 0 mm 3 mps 732 mmHg 55%
    11:00 +34°C° 0 mm 3 mps 732 mmHg 49%
    12:00 +35°C° 0 mm 4 mps 732 mmHg 43%
    13:00 +34°C° 0.1 mm 4 mps 731 mmHg 45%
    14:00 +34°C° 0.1 mm 4 mps 731 mmHg 47%
    15:00 +34°C° 0.1 mm 4 mps 730 mmHg 49%
    16:00 +33°C° 0.1 mm 4 mps 730 mmHg 51%
    17:00 +33°C° 0.1 mm 3 mps 730 mmHg 53%
    18:00 +31°C° 0.1 mm 3 mps 730 mmHg 56%
    19:00 +30°C° 0 mm 2 mps 731 mmHg 59%
    20:00 +29°C° 0 mm 2 mps 731 mmHg 63%
    21:00 +28°C° 0 mm 2 mps 731 mmHg 67%
    22:00 +28°C° 0 mm 2 mps 731 mmHg 68%
    23:00 +28°C° 0 mm 3 mps 731 mmHg 70%

    Pasado mañana, 20 Junio, Jueves

    Tiempo Temperatura Precipitaciones Viento Presión Humedad
    00:00 +27°C° 0 mm 3 mps 730 mmHg 71%
    01:00 +27°C° 0 mm 4 mps 730 mmHg 74%
    02:00 +26°C° 0 mm 4 mps 730 mmHg 77%
    03:00 +26°C° 0 mm 4 mps 730 mmHg 79%
    04:00 +26°C° 0 mm 4 mps 730 mmHg 80%
    05:00 +26°C° 0 mm 4 mps 730 mmHg 80%
    06:00 +26°C° 0 mm 4 mps 731 mmHg 80%
    07:00 +28°C° 0 mm 4 mps 731 mmHg 73%
    08:00 +30°C° 0 mm 5 mps 731 mmHg 65%
    09:00 +32°C° 0 mm 5 mps 731 mmHg 58%
    10:00 +34°C° 0 mm 6 mps 731 mmHg 52%
    11:00 +35°C° 0 mm 6 mps 731 mmHg 45%
    12:00 +36°C° 0 mm 6 mps 731 mmHg 39%
    13:00 +36°C° 0 mm 6 mps 730 mmHg 40%
    14:00 +36°C° 0 mm 6 mps 730 mmHg 41%
    15:00 +36°C° 0 mm 6 mps 730 mmHg 42%
    16:00 +35°C° 0.5 mm 6 mps 730 mmHg 47%
    17:00 +33°C° 0.5 mm 5 mps 730 mmHg 51%
    18:00 +32°C° 0.5 mm 5 mps 730 mmHg 55%
    19:00 +30°C° 0 mm 5 mps 730 mmHg 57%
    20:00 +29°C° 0 mm 5 mps 731 mmHg 60%
    21:00 +29°C° 0 mm 4 mps 731 mmHg 62%
    22:00 +28°C° 0 mm 4 mps 732 mmHg 66%
    23:00 +27°C° 0 mm 4 mps 732 mmHg 70%

    21 Junio, Viernes

    Tiempo Temperatura Precipitaciones Viento Presión Humedad
    00:00 +27°C° 0 mm 4 mps 732 mmHg 73%
    01:00 +26°C° 0 mm 3 mps 732 mmHg 75%
    02:00 +26°C° 0 mm 3 mps 732 mmHg 76%
    03:00 +25°C° 0 mm 3 mps 732 mmHg 77%
    04:00 +25°C° 0 mm 3 mps 733 mmHg 76%
    05:00 +25°C° 0 mm 3 mps 734 mmHg 75%
    06:00 +25°C° 0 mm 3 mps 734 mmHg 73%
    07:00 +27°C° 0 mm 3 mps 734 mmHg 65%
    08:00 +29°C° 0 mm 3 mps 735 mmHg 56%
    09:00 +30°C° 0 mm 3 mps 735 mmHg 48%
    10:00 +33°C° 0 mm 4 mps 735 mmHg 43%
    11:00 +34°C° 0 mm 4 mps 735 mmHg 37%
    12:00 +36°C° 0 mm 4 mps 735 mmHg 32%
    13:00 +36°C° 0 mm 4 mps 735 mmHg 32%
    14:00 +36°C° 0 mm 3 mps 735 mmHg 31%
    15:00 +37°C° 0 mm 3 mps 735 mmHg 31%
    16:00 +36°C° 0 mm 3 mps 735 mmHg 34%
    17:00 +35°C° 0 mm 3 mps 735 mmHg 37%
    18:00 +34°C° 0 mm 2 mps 735 mmHg 40%
    19:00 +32°C° 0 mm 2 mps 736 mmHg 43%
    20:00 +31°C° 0 mm 1 mps 736 mmHg 46%
    21:00 +30°C° 0 mm 1 mps 736 mmHg 48%
    22:00 +29°C° 0 mm 1 mps 736 mmHg 50%
    23:00 +29°C° 0 mm 1 mps 736 mmHg 52%

    22 Junio, Sábado

    Tiempo Temperatura Precipitaciones Viento Presión Humedad
    00:00 +26°C° 0 mm 0 mps 736 mmHg 53%
    01:00 +28°C° 0 mm 1 mps 736 mmHg 55%
    02:00 +27°C° 0 mm 1 mps 736 mmHg 57%
    03:00 +27°C° 0 mm 1 mps 736 mmHg 58%
    04:00 +27°C° 0.1 mm 1 mps 736 mmHg 58%
    05:00 +27°C° 0.1 mm 1 mps 737 mmHg 57%
    06:00 +28°C° 0.1 mm 1 mps 737 mmHg 56%
    07:00 +30°C° 0.2 mm 1 mps 738 mmHg 53%
    08:00 +32°C° 0.2 mm 1 mps 738 mmHg 50%
    09:00 +34°C° 0.2 mm 1 mps 738 mmHg 47%
    10:00 +35°C° 0.2 mm 1 mps 738 mmHg 44%
    11:00 +37°C° 0.2 mm 2 mps 738 mmHg 40%
    12:00 +38°C° 0.2 mm 3 mps 738 mmHg 37%
    13:00 +38°C° 0 mm 3 mps 738 mmHg 36%
    14:00 +38°C° 0 mm 3 mps 737 mmHg 36%
    15:00 +37°C° 0 mm 3 mps 737 mmHg 35%
    16:00 +36°C° 0.1 mm 3 mps 736 mmHg 40%
    17:00 +34°C° 0.1 mm 3 mps 736 mmHg 45%
    18:00 +33°C° 0.1 mm 3 mps 736 mmHg 51%
    19:00 +30°C° 0.1 mm 3 mps 736 mmHg 57%
    20:00 +28°C° 0.1 mm 3 mps 736 mmHg 63%
    21:00 +26°C° 0.1 mm 3 mps 737 mmHg 69%
    22:00 +27°C° 0 mm 2 mps 737 mmHg 65%
    23:00 +27°C° 0 mm 2 mps 736 mmHg 62%

    23 Junio, Domingo

    Tiempo Temperatura Precipitaciones Viento Presión Humedad
    00:00 +27°C° 0 mm 1 mps 736 mmHg 58%
    01:00 +26°C° 0.4 mm 1 mps 736 mmHg 60%
    02:00 +26°C° 0.4 mm 1 mps 736 mmHg 62%
    03:00 +26°C° 0.4 mm 1 mps 736 mmHg 64%
    04:00 +26°C° 0 mm 1 mps 737 mmHg 64%
    05:00 +26°C° 0 mm 1 mps 737 mmHg 65%
    06:00 +27°C° 0 mm 1 mps 737 mmHg 66%
    07:00 +29°C° 0 mm 1 mps 737 mmHg 59%
    08:00 +32°C° 0 mm 1 mps 738 mmHg 53%
    09:00 +34°C° 0 mm 1 mps 738 mmHg 46%
    10:00 +35°C° 0.1 mm 1 mps 738 mmHg 42%
    11:00 +38°C° 0.1 mm 2 mps 738 mmHg 37%
    12:00 +39°C° 0.1 mm 2 mps 738 mmHg 33%
    13:00 +38°C° 0 mm 2 mps 737 mmHg 34%
    14:00 +38°C° 0 mm 3 mps 736 mmHg 34%
    15:00 +38°C° 0 mm 3 mps 736 mmHg 35%
    16:00 +35°C° 0.8 mm 3 mps 736 mmHg 43%
    17:00 +33°C° 0.8 mm 3 mps 736 mmHg 50%
    18:00 +30°C° 0.8 mm 2 mps 736 mmHg 58%
    19:00 +29°C° 0.4 mm 2 mps 736 mmHg 60%
    20:00 +29°C° 0.4 mm 2 mps 736 mmHg 62%
    21:00 +28°C° 0.4 mm 1 mps 736 mmHg 65%
    22:00 +28°C° 0 mm 1 mps 736 mmHg 63%
    23:00 +28°C° 0 mm 1 mps 736 mmHg 62%
    Mostrar más